Flag for Canada Weather past 2 weeks in Medicine Hat, Alberta, Canada

Now
34 °F

Fog.


Feels Like: 23 °F
Forecast: 33 / 61 °F
Wind: 16 mph from Northwest

Location: Medicine Hat


UV Index: 3 (Moderate)

Visibility: 5 mi


Pressure: 29.86 "Hg

Humidity: 100%

Dew point: 34 °F

Location of Medicine HatLocation

Historic Weather in Medicine Hat

°F

Medicine Hat temperature yesterday

Maximum temperature yesterday: 57 °F (at 12:00 PM)
Minimum temperature yesterday: 36 °F (at 11:00 PM)
Average temperature yesterday: 48 °F

Past Weeks' High & Low Weather Summary

 TemperatureHumidityPressure
High73 °F (Apr 8, 4:00 PM)100% (Apr 7, 6:00 AM)30.42 "Hg (Apr 7, 6:00 AM)
Low18 °F (Apr 13, 3:00 AM)17% (Apr 8, 3:00 PM)29.57 "Hg (Apr 18, 4:00 PM)
Average42 °F60%29.91 "Hg
* Reported Midnight between Apr 3 and Apr 4 — Apr 19 12:56 AM, Medicine Hat, Weather by CustomWeather, © 2014

Note: Actual official high and low records may vary slightly from our data, if they occured in-between our weather recording intervals... More about our weather records

Advertising

Historic Weather Conditions — Data for Previous 24 hours

 ConditionsComfort  
Time TempWeatherWind HumidityBarometerVisibility
12:56 AM
Apr 19
34 °FLow clouds.18 mph100%29.85 "Hg8 mi
12:03 AM34 °FLight mixture of precip. Low clouds.17 mph100%29.82 "Hg3 mi
11:00 PM
Apr 18
36 °FLight rain. Low clouds.21 mph93%29.78 "Hg9 mi
10:00 PM39 °FMostly cloudy.24 mph87%29.74 "Hg9 mi
9:00 PM41 °FOvercast.24 mph87%29.70 "Hg15 mi
8:00 PM45 °FPartly sunny.17 mph76%29.67 "Hg30 mi
7:00 PM46 °FPartly sunny.22 mph66%29.64 "Hg30 mi
6:00 PM54 °FPartly sunny.29 mph41%29.61 "Hg30 mi
5:00 PM52 °FPartly sunny.25 mph41%29.59 "Hg30 mi
4:00 PM57 °FPartly sunny.17 mph25%29.57 "Hg30 mi
3:00 PM57 °FBroken clouds.21 mph29%29.58 "Hg30 mi
2:00 PM57 °FBroken clouds.13 mph41%29.59 "Hg30 mi
1:00 PM54 °FSprinkles. Partly sunny.16 mph63%29.59 "Hg30 mi
12:00 PM57 °FPartly sunny.15 mph48%29.58 "Hg30 mi
11:00 AM54 °FPartly sunny.10 mph58%29.59 "Hg30 mi
10:00 AM50 °FBroken clouds.14 mph67%29.60 "Hg30 mi
9:00 AM46 °FBroken clouds.8 mph82%29.61 "Hg30 mi
8:00 AM43 °FBroken clouds.7 mph87%29.62 "Hg30 mi
7:00 AM43 °FPartly cloudy.3 mph81%29.62 "Hg30 mi
6:00 AM43 °FOvercast.3 mph87%29.62 "Hg9 mi
5:00 AM45 °FOvercast.6 mph81%29.62 "Hg9 mi
4:00 AM48 °FPartly cloudy.8 mph66%29.62 "Hg9 mi
3:00 AM45 °FClear.8 mph76%29.63 "Hg9 mi
2:00 AM46 °FPassing clouds.10 mph71%29.64 "Hg9 mi
1:00 AM46 °FClear.8 mph71%29.66 "Hg9 mi
Weather by CustomWeather, © 2014

See weather overview